Lexington Weather

Lexington, Massachusetts, USA

53°F
10/20/2019 8:00pm 
  • Lexington Conditions: Mostly cloudy
  • Temperature: 53.2°F / 11.8°CColder 1.1°F than last hour.
  • Dew Point: 48.2°FIncreased 0.2°Fsince last hour.
  • Relative Humidity: 83%Increased 4.0% since last hour.
  • Wind: Calm, 10-min avg: Calm, gust: None
  • Barometer: 30.02 in Steady
  • Visibility: 10 miles
  • Rain Today: 0.00 in
  •   

Regional Weather Roundup
for Boston, MA

        
000
ASUS41 KBOX 202301
RWRBOX

REGIONAL WEATHER ROUNDUP
NATIONAL WEATHER SERVICE BOSTON/NORTON MA
700 PM EDT SUN OCT 20 2019

NOTE:  "FAIR" INDICATES FEW OR NO CLOUDS BELOW 12,000 FEET WITH NO 
SIGNIFICANT WEATHER AND/OR OBSTRUCTIONS TO VISIBILITY.

MAZALL-210000-
EASTERN MASSACHUSETTS
  
CITY           SKY/WX    TMP DP  RH WIND       PRES   REMARKS
BOSTON         CLOUDY    57  49  74 E8        30.05S                  
BEVERLY        FAIR      53  47  79 CALM      30.05S                  
LAWRENCE       FAIR      53  46  77 E5        30.07S                  
BEDFORD        CLOUDY    57  45  64 E3        30.04S                  
BLUE HILL      NOT AVBL                                               
NORWOOD        FAIR      54  46  74 CALM      30.05R                  
MARSHFIELD     NOT AVBL                                               
PLYMOUTH       FAIR      54  46  74 SE5       30.05S                  
TAUNTON        FAIR      53  49  86 CALM      30.04S                  
NEW BEDFORD    FAIR      56  47  71 E7        30.04S                  
$$

MAZALL-210000-
CAPE COD AND THE ISLANDS
  
CITY           SKY/WX    TMP DP  RH WIND       PRES   REMARKS
FALMOUTH       PTCLDY    54  48  82 SE5       30.05F                  
HYANNIS        NOT AVBL                                               
CHATHAM        NOT AVBL                                               
PROVINCETOWN   FAIR      54  47  77 SE6         N/A                   
NANTUCKET      FAIR      54  50  86 E6        30.06S                  
MARTHAS VNYRD  FAIR      54  50  86 E6        30.05S                  
$$
 
MAZALL-210000-
CENTRAL AND WESTERN MASSACHUSETTS
  
CITY           SKY/WX    TMP DP  RH WIND       PRES   REMARKS
WORCESTER      RAIN      52  44  74 CALM      30.05R                  
FITCHBURG      LGT RAIN  52  46  80 CALM      30.06R                  
ORANGE         LGT RAIN  52  49  89 CALM      30.05R                  
SPRINGFIELD    NOT AVBL                                               
WESTFIELD      LGT RAIN  51  49  92 N3        30.04R                  
NORTH ADAMS    CLOUDY    50  46  86 E7        30.03S                  
PITTSFIELD     CLOUDY    49  47  93 CALM      30.02S                  
$$
 
RIZALL-210000-
RHODE ISLAND
  
CITY           SKY/WX    TMP DP  RH WIND       PRES   REMARKS
PROVIDENCE     CLOUDY    56  50  80 CALM      30.04S                  
NEWPORT        CLOUDY    56  47  71 SE5       30.04R                  
BLOCK ISLAND   CLOUDY    56  50  80 E8        30.04S                  
SMITHFIELD     CLOUDY   N/A N/A N/A CALM      30.04S                  
WESTERLY       LGT RAIN  58  52  80 CALM      30.04S                  
$$
 
CTZALL-210000-
CONNECTICUT
  
CITY           SKY/WX    TMP DP  RH WIND       PRES   REMARKS
BRADLEY INTL   LGT RAIN  53  49  86 N5        30.04R                  
HARTFORD       LGT RAIN  53  51  93 CALM      30.03S                  
BRIDGEPORT     LGT RAIN  56  50  80 E13       30.01S                  
DANBURY        LGT RAIN  53  51  93 NE3       30.03R                  
GROTON         NOT AVBL                                               
NEW HAVEN      LGT RAIN  56  51  84 NE5       30.02S                  
CHESTER        LGT RAIN  54  52  94 CALM      30.03S                  
MERIDEN        LGT RAIN  52  49  89 NE3       30.03S                  
WILLIMANTIC    LGT RAIN  53  52  96 CALM      30.05S                  
OXFORD         LGT RAIN  50  49  96 E7        30.03S FOG              
$$

MEZ002-015-021-024-NHZ003-005-008-011-012-014-VTZ005-008-210000-
NORTHERN NEW ENGLAND
  
CITY           SKY/WX    TMP DP  RH WIND       PRES   REMARKS
PORTLAND ME    MOCLDY    51  45  79 E5        30.08S                  
BANGOR ME      CLOUDY    49  41  74 S3        30.07F                  
CONCORD NH     FAIR      51  43  74 E3        30.05S                  
MANCHESTER NH  CLOUDY    55  44  66 E3        30.04R                  
NASHUA NH      CLOUDY    53  47  79 CALM      30.06R                  
PORTSMOUTH NH  NOT AVBL                                               
JAFFREY NH     LGT RAIN  49  46  90 CALM      30.05S                  
KEENE NH       LGT RAIN  49  48  97 CALM      30.05S                  
BURLINGTON VT  FAIR      52  42  69 S8        30.00R                  
MT. WASHINGTON NOT AVBL                                               
$$

NYZ052-076-210000-
EASTERN NEW YORK
  
CITY           SKY/WX    TMP DP  RH WIND       PRES   REMARKS
ALBANY         MOCLDY    50  46  86 NW5       30.04R                  
NEW YORK CITY  LGT RAIN  56  48  74 E9        29.99S                  
$$
 
ANZALL-210000-
MARINE OBSERVATIONS
  
STATION/POSITION TIME  TEMP    WIND        PRES    VSBY  WAVE
                       AIR SEA DIR/SP/G                  HT/PER
                 (UTC) (F)     (DEG/KT/KT) (MB)    (MI)  (FT/S)
BOSTON BUOY      2150   56 57   80/  6/  8 1016.8          1/13
BUZZARDS BAY     2200   57     100/  9/ 10 1017.6F
NANTUCKET SOUND  NOT AVBL
MASS BAY-STELLWA 2204   55 56  130/  8/  8 1017.0F  1 7/8  1/ 4
ISLE OF SHOALS   2200   54     100/  5/  6 1017.5F
S OF BLOCK IS    2230      60                N/A           2/ 8
$$

......................KEY.........................
  SKY/WX - SKY CONDITION/PRESENT WEATHER
  TMP    - TEMPERATURE IN FAHRENHEIT
  DWPT   - DEWPOINT IN FAHRENHEIT
  RH     - RELATIVE HUMIDITY IN PERCENT
  WIND   - DIRECTION AND SPEED IN MPH
  PRES   - MEAN SEA LEVEL PRESSURE IN INCHES OF HG
  WCI    - WIND CHILL INDEX
  VSB    - VISIBILITY IN MILES
  HX     - HEAT INDEX
  TC     - TEMPERATURE IN CELSIUS
  VRB    - VARIABLE WIND DIRECTION
  N/A    - NOT AVAILABLE
  
      

Other recent Regional Weather Roundups

Sun Oct 20, 7:10pm

Sun Oct 20, 6:10pm

Sun Oct 20, 6:00pm

Sun Oct 20, 5:10pm

Sun Oct 20, 5:00pm

Sun Oct 20, 4:10pm

Sun Oct 20, 4:00pm

Sun Oct 20, 3:10pm

Sun Oct 20, 3:00pm

Sun Oct 20, 2:10pm

Sun Oct 20, 2:01pm

Sun Oct 20, 1:10pm

Sun Oct 20, 1:01pm

Sun Oct 20, 12:10pm

Sun Oct 20, 12:00pm

Sun Oct 20, 11:10am

Sun Oct 20, 11:00am

Sun Oct 20, 10:10am

Sun Oct 20, 10:00am

Sun Oct 20, 9:10am

Sun Oct 20, 9:00am

Sun Oct 20, 8:10am

Sun Oct 20, 8:00am

Sun Oct 20, 7:10am

Sun Oct 20, 7:00am

Sun Oct 20, 6:10am

Sun Oct 20, 6:00am

Sun Oct 20, 5:10am

Sun Oct 20, 5:00am

Sun Oct 20, 4:10am

Sun Oct 20, 4:00am

Sun Oct 20, 3:10am

Sun Oct 20, 3:00am

Sun Oct 20, 2:10am

Sun Oct 20, 2:00am

Sun Oct 20, 1:10am

Sun Oct 20, 1:00am

Sun Oct 20, 12:10am

Sun Oct 20, 12:00am

Sat Oct 19, 11:10pm

Sat Oct 19, 11:00pm

Sat Oct 19, 10:10pm

Sat Oct 19, 10:00pm

Sat Oct 19, 9:10pm

Sat Oct 19, 9:00pm

Sat Oct 19, 8:10pm

Sat Oct 19, 8:00pm

Sat Oct 19, 7:10pm

Sat Oct 19, 7:00pm

Sat Oct 19, 6:10pm

Sat Oct 19, 6:00pm

Sat Oct 19, 5:10pm

Sat Oct 19, 5:00pm

Sat Oct 19, 4:10pm

Sat Oct 19, 4:00pm

Sat Oct 19, 3:10pm

Sat Oct 19, 3:01pm

Sat Oct 19, 2:10pm

Sat Oct 19, 2:00pm

Sat Oct 19, 1:10pm

Sat Oct 19, 1:01pm

Sat Oct 19, 12:10pm

Sat Oct 19, 12:00pm

Sat Oct 19, 11:10am

Sat Oct 19, 11:01am

Sat Oct 19, 10:10am

Sat Oct 19, 10:00am

Sat Oct 19, 9:10am

Sat Oct 19, 9:00am

Sat Oct 19, 8:10am

Sat Oct 19, 8:00am

Sat Oct 19, 7:10am

Sat Oct 19, 7:00am

Sat Oct 19, 6:10am

Sat Oct 19, 6:00am

Sat Oct 19, 5:10am

Sat Oct 19, 5:00am

Sat Oct 19, 4:10am

Sat Oct 19, 4:00am

Sat Oct 19, 3:10am

Sat Oct 19, 3:00am

Sat Oct 19, 2:10am

Sat Oct 19, 2:00am

Sat Oct 19, 1:10am

Sat Oct 19, 1:00am

Sat Oct 19, 12:10am

Sat Oct 19, 12:00am

Fri Oct 18, 11:10pm

Fri Oct 18, 11:01pm

Fri Oct 18, 10:10pm

Fri Oct 18, 10:00pm

Fri Oct 18, 9:10pm

Fri Oct 18, 9:00pm

Fri Oct 18, 8:10pm

Fri Oct 18, 8:00pm

Fri Oct 18, 7:10pm

Fri Oct 18, 7:00pm

Fri Oct 18, 6:10pm

Fri Oct 18, 6:01pm

Fri Oct 18, 5:10pm

Fri Oct 18, 5:00pm

Fri Oct 18, 4:10pm

Fri Oct 18, 4:00pm

Fri Oct 18, 3:10pm

Fri Oct 18, 3:01pm

Fri Oct 18, 2:10pm

Fri Oct 18, 2:00pm

Fri Oct 18, 1:10pm

Fri Oct 18, 1:01pm

Fri Oct 18, 12:10pm

Fri Oct 18, 12:00pm

Fri Oct 18, 11:10am

Fri Oct 18, 11:00am

Fri Oct 18, 10:10am

Fri Oct 18, 10:00am

Fri Oct 18, 9:10am

Fri Oct 18, 9:00am

Fri Oct 18, 8:10am

Fri Oct 18, 8:00am

Fri Oct 18, 7:10am

Fri Oct 18, 7:00am

Fri Oct 18, 6:10am

Fri Oct 18, 6:00am

Fri Oct 18, 5:10am

Fri Oct 18, 5:00am

Fri Oct 18, 4:10am

Fri Oct 18, 4:00am

Fri Oct 18, 3:10am

Fri Oct 18, 3:00am

Fri Oct 18, 2:10am

Fri Oct 18, 2:00am

Fri Oct 18, 1:10am

Fri Oct 18, 1:00am

Fri Oct 18, 12:10am

Fri Oct 18, 12:00am

Thu Oct 17, 11:10pm

Thu Oct 17, 11:00pm

Thu Oct 17, 10:10pm

Thu Oct 17, 10:00pm

Thu Oct 17, 9:10pm

Thu Oct 17, 9:00pm

Thu Oct 17, 8:10pm

Thu Oct 17, 8:00pm

Meta data:

ID: 85b99491-13b5-45d2-b242-5efdd802453d
Link: https://api.weather.gov/products/85b99491-13b5-45d2-b242-5efdd802453d